This demonstration page uses our WeatherBlox Daily Observations layout. Learn more.

Left ArrowRight Arrow

Hourly Observations for September 21, 2016

Temp ( °F °C ) Dew Point ( °F °C ) Humidity (%) Winds ( mph kmh ) Pressure ( in mb ) Visibility ( mi km ) Precip ( " mm )
12:51 am 00:51 Clear 70 21.1 50 10 49 49 Calm 29.86 1011 10 16.0934 0 0
1:51 am 01:51 Clear 67 19.4 52 11.1 59 59 Calm 29.86 1011 10 16.0934 0 0
2:51 am 02:51 Clear 66 18.9 53 11.7 63 63 SSE 3 6 29.86 1011 10 16.0934 0 0.0254
3:51 am 03:51 Clear 65 18.3 51 10.6 61 61 E 5 7 29.86 1011 10 16.0934 0 0
4:51 am 04:51 Clear 65 18.3 51 10.6 61 61 SE 5 7 29.87 1012 10 16.0934 0 0
5:51 am 05:51 Clear 64 17.8 51 10.6 63 63 E 6 9 29.89 1012 10 16.0934 0 0
6:51 am 06:51 Sunny 68 20 51 10.6 55 55 ESE 6 9 29.9 1012 10 16.0934 0 0
7:51 am 07:51 Sunny 72 22.2 51 10.6 48 48 SSE 7 11 29.91 1013 10 16.0934 0 0
8:51 am 08:51 Sunny 79 26.1 49 9.4 35 35 ESE 12 19 29.9 1013 10 16.0934 0 0
9:51 am 09:51 Sunny 83 28.3 48 8.9 30 30 SE 7 11 29.9 1012 10 16.0934 0 0
10:51 am 10:51 Sunny 86 30 48 8.9 27 27 S 6 9 29.88 1012 10 16.0934 0 0
11:51 am 11:51 Sunny 90 32.2 49 9.4 24 24 Calm 29.85 1011 10 16.0934 0 0
12:51 pm 12:51 Sunny 91 32.8 53 11.7 27 27 Calm 29.81 1010 10 16.0934 0 0
1:51 pm 13:51 Sunny 93 33.9 53 11.7 26 26 SE 5 7 29.78 1009 10 16.0934 0 0
2:51 pm 14:51 Sunny 93 33.9 54 12.2 27 27 Calm 29.75 1008 10 16.0934 0 0
3:51 pm 15:51 Sunny 93 33.9 54 12.2 27 27 W 7 11 29.74 1007 10 16.0934 0 0
4:51 pm 16:51 Mostly Cloudy 93 33.9 54 12.2 27 27 WNW 12 19 29.74 1007 10 16.0934 0 0
5:51 pm 17:51 Sunny 86 30 57 13.9 37 37 WNW 10 17 29.75 1008 10 16.0934 0 0
6:51 pm 18:51 Partly Cloudy 81 27.2 60 15.6 49 49 W 8 13 29.75 1008 10 16.0934 0 0
7:51 pm 19:51 Clear 78 25.6 60 15.6 54 54 NW 6 9 29.77 1008 10 16.0934 0 0
8:51 pm 20:51 Mostly Clear 79 26.1 59 15 50 50 WNW 8 13 29.77 1008 10 16.0934 0 0
9:51 pm 21:51 Clear 76 24.4 60 15.6 58 58 E 3 6 29.77 1008 10 16.0934 0 0
10:51 pm 22:51 Partly Cloudy 76 24.4 60 15.6 58 58 E 6 9 29.78 1008 10 16.0934 0 0
11:51 pm 23:51 Mostly Cloudy 75 23.9 60 15.6 60 60 Calm 29.77 1008 10 16.0934 0 0

Powered by AerisWeather